Location: ???????
(55.3754°N, 39.3545°E)
Time: 19:58:26
(UTC+00:00)

Cosmos 1300 Rocket - Pass Details

Date: 14 April 2026
Orbit: 596 x 617 km, 82.5° (Epoch: 19 May)

Event Time Altitude Azimuth Distance (km) Brightness Sun altitude
Exits shadow 19:42:37 60° 201° (SSW) 690 3.5 -21.7°
Maximum altitude 19:43:23 85° 280° (W) 608 3.4 -21.8°
Drops below altitude 10° 19:47:42 10° 11° (N) 1,951 6.8 -22.0°
Sets 19:49:56 0° 12° (NNE) 2,860 7.8 -22.2°
